Point Perpendicular Observation History
Time Wind Speed Temp Pressure Rel. Hum Rain
05/09:30pm WSW 4-5 kts 12.3°c 1027.2 hPa 86% 0.0mm
05/09:00pm WSW 4 kts 12.5°c 1027.2 hPa 80% 0.0mm
05/08:30pm WSW 4 kts 13.1°c 1027.1 hPa 75% 0.0mm
05/08:00pm SW 3 kts 13.7°c 1027.1 hPa 63% 0.0mm
05/07:30pm SSW 3 kts 13.1°c 1027.0 hPa 65% 0.0mm
05/07:00pm SSW 3-4 kts 11.5°c 1027.0 hPa 68% 0.0mm
05/06:30pm SW 2-3 kts 12.9°c 1026.8 hPa 60% 0.0mm
05/06:00pm SSW 2-3 kts 13.0°c 1026.5 hPa 59% 0.0mm
05/05:30pm S 3-4 kts 13.3°c 1026.1 hPa 61% 0.0mm
05/05:00pm SSE 3-4 kts 13.7°c 1025.8 hPa 60% 0.0mm
05/04:30pm SSE 3-4 kts 14.1°c 1025.7 hPa 59% 0.0mm
05/04:00pm ESE 3-4 kts 15.1°c 1025.5 hPa 57% 0.0mm
05/03:30pm ESE 4-6 kts 15.5°c 1025.5 hPa 54% 0.0mm
05/03:00pm E 5-6 kts 16.0°c 1025.6 hPa 54% 0.0mm
05/02:30pm ESE 5-8 kts 16.0°c 1025.7 hPa 54% 0.0mm
05/02:00pm SE 5-7 kts 15.4°c 1025.9 hPa 57% 0.0mm
05/01:30pm SE 3-5 kts 15.5°c 1026.4 hPa 54% 0.0mm
05/01:00pm NNE 2-5 kts 15.8°c 1026.8 hPa 54% 0.0mm
05/12:30pm NW 2-6 kts 16.0°c 1027.2 hPa 49% 0.0mm
05/12:00pm NW 2-5 kts 14.8°c 1027.8 hPa 50% 0.0mm
05/11:30am NW 5-6 kts 14.0°c 1028.6 hPa 55% 0.0mm
05/11:00am WNW 3-6 kts 13.5°c 1029.2 hPa 57% 0.0mm
05/10:30am WNW 5-9 kts 13.0°c 1029.6 hPa 63% 0.0mm
05/10:00am WNW 5-8 kts 12.3°c 1029.9 hPa 67% 0.0mm
05/09:30am WNW 4-7 kts 11.4°c 1029.8 hPa 71% 0.0mm
05/09:00am WNW 5-8 kts 10.5°c 1029.7 hPa 73% 0.0mm
05/08:30am WNW 5-7 kts 9.5°c 1029.5 hPa 78% 0.0mm
05/08:00am WNW 4-6 kts 8.6°c 1029.6 hPa 80% 0.0mm
05/07:30am WNW 5-6 kts 8.3°c 1029.4 hPa 85% 0.0mm
05/07:00am WNW 3-4 kts 7.9°c 1029.3 hPa 85% 0.0mm
05/06:30am NW 8-10 kts 7.9°c 1029.4 hPa 86% 0.0mm
05/06:00am W 1-3 kts 8.4°c 1029.3 hPa 86% 0.0mm
05/05:30am WNW 2-3 kts 8.6°c 1029.4 hPa 88% 0.0mm
05/05:00am WNW 2-3 kts 8.6°c 1029.3 hPa 87% 0.0mm
05/04:30am WNW 2-3 kts 8.9°c 1029.4 hPa 86% 0.0mm
05/04:00am WNW 6-7 kts 8.7°c 1029.5 hPa 87% 0.0mm
05/03:30am NW 7 kts 9.5°c 1029.6 hPa 83% 0.0mm
05/03:00am WNW 4-5 kts 9.5°c 1029.8 hPa 86% 0.0mm
05/02:30am WNW 5-6 kts 9.2°c 1030.0 hPa 86% 0.0mm
05/02:00am WNW 5-6 kts 9.7°c 1030.3 hPa 88% 0.0mm
05/01:30am WNW 4 kts 9.0°c 1030.6 hPa 89% 0.0mm
05/01:00am WNW 5-6 kts 9.9°c 1030.6 hPa 84% 0.0mm
05/12:30am WNW 5-7 kts 10.8°c 1030.8 hPa 80% 0.0mm
05/12:00am W 1-2 kts 11.5°c 1031.0 hPa 79% 0.0mm
Time Wind Speed Temp Pressure Rel. Hum Rain
04/11:30pm WSW 3-5 kts 11.8°c 1031.3 hPa 79% 0.0mm
04/11:00pm WSW 4-6 kts 11.8°c 1031.5 hPa 79% 0.0mm
04/10:30pm WSW 3-4 kts 11.5°c 1031.6 hPa 81% 0.0mm
04/10:00pm WSW 3-5 kts 11.8°c 1031.7 hPa 80% 0.0mm
04/09:30pm WSW 3-5 kts 11.9°c 1031.8 hPa 79% 0.0mm
04/09:00pm WSW 3-4 kts 12.2°c 1031.9 hPa 76% 0.0mm
04/08:30pm SW 2-3 kts 12.9°c 1031.9 hPa 72% 0.0mm
04/08:00pm SW 3-4 kts 13.5°c 1031.8 hPa 64% 0.0mm
04/07:30pm SW 4-7 kts 13.6°c 1031.8 hPa 61% 0.0mm
04/07:00pm SSW 5-7 kts 13.5°c 1031.6 hPa 60% 0.0mm
04/06:30pm SSW 6-9 kts 13.6°c 1031.4 hPa 60% 0.0mm
04/06:00pm SSW 6-8 kts 13.5°c 1031.3 hPa 59% 0.0mm
04/05:30pm SSW 6-8 kts 13.4°c 1031.2 hPa 61% 0.0mm
04/05:00pm SSW 7-11 kts 13.4°c 1031.2 hPa 61% 0.0mm
04/04:30pm SSW 6-10 kts 13.5°c 1031.0 hPa 61% 0.0mm
04/04:00pm SSW 7-11 kts 13.8°c 1030.7 hPa 58% 0.0mm
04/03:30pm SSW 11-16 kts 13.8°c 1030.7 hPa 61% 0.0mm
04/03:00pm SSW 11-15 kts 14.0°c 1030.7 hPa 61% 0.0mm
04/02:30pm SW 10-15 kts 13.8°c 1030.8 hPa 58% 0.0mm
04/02:00pm SSW 12-17 kts 13.8°c 1030.7 hPa 57% 0.0mm
04/01:30pm SSW 13-19 kts 13.8°c 1031.0 hPa 60% 0.0mm
04/01:00pm SW 12-19 kts 13.8°c 1031.2 hPa 59% 0.0mm
04/12:30pm SW 12-17 kts 13.6°c 1031.4 hPa 56% 0.0mm
04/12:00pm SSW 13-20 kts 13.6°c 1031.5 hPa 59% 0.0mm
04/11:30am SSW 13-19 kts 13.4°c 1031.8 hPa 57% 0.0mm
04/11:00am SSW 14-20 kts 13.2°c 1032.2 hPa 59% 0.0mm
04/10:30am SSW 12-21 kts 13.2°c 1032.6 hPa 56% 0.0mm
04/10:00am SSW 12-17 kts 12.9°c 1032.8 hPa 61% 0.0mm
04/09:30am SW 12-19 kts 12.8°c 1032.6 hPa 60% 0.0mm
04/09:00am SW 12-18 kts 12.7°c 1032.6 hPa 63% 0.0mm
04/08:30am SW 12-22 kts 12.6°c 1032.5 hPa 60% 0.0mm
04/08:00am SW 10-17 kts 12.4°c 1032.1 hPa 63% 0.0mm
04/07:30am SW 13-20 kts 12.3°c 1031.7 hPa 61% 0.0mm
04/07:00am SW 12-18 kts 12.2°c 1031.4 hPa 59% 0.0mm
04/06:30am SW 10-17 kts 12.1°c 1031.3 hPa 61% 0.0mm
04/06:00am SW 13-22 kts 11.9°c 1030.9 hPa 64% 0.0mm
04/05:30am SW 11-19 kts 12.0°c 1030.7 hPa 65% 0.0mm
04/05:00am SW 12-20 kts 12.2°c 1030.4 hPa 62% 0.0mm
04/04:30am SW 14-21 kts 12.3°c 1029.9 hPa 65% 0.0mm
04/04:08am SW 15-25 kts 12.7°c 1029.8 hPa 66% 0.0mm
04/04:00am SW 15-24 kts 12.7°c 1029.8 hPa 66% 0.0mm
04/03:30am SSW 15-22 kts 12.7°c 1029.7 hPa 60% 0.0mm
04/03:17am SW 15-26 kts 12.3°c 1029.6 hPa 66% 0.0mm
04/03:00am SW 12-22 kts 12.8°c 1029.5 hPa 62% 0.0mm
04/02:30am SW 15-25 kts 12.9°c 1029.4 hPa 61% 0.0mm
04/02:00am SSW 16-27 kts 13.2°c 1029.2 hPa 60% 0.0mm
04/01:32am SW 15-25 kts 13.1°c 1029.6 hPa 67% 0.0mm
04/01:30am SW 16-25 kts 13.1°c 1029.4 hPa 62% 0.0mm
04/01:00am SSW 17-25 kts 13.3°c 1029.0 hPa 60% 0.0mm
04/12:33am SSW 15-25 kts 13.2°c 1029.4 hPa 59% 0.0mm
04/12:30am SSW 16-25 kts 13.4°c 1029.3 hPa 62% 0.0mm
04/12:00am SSW 17-26 kts 13.5°c 1029.1 hPa 58% 0.0mm
Time Wind Speed Temp Pressure Rel. Hum Rain
03/11:30pm SSW 17-25 kts 13.3°c 1028.8 hPa 60% 0.0mm
03/11:00pm SSW 18-28 kts 13.5°c 1028.8 hPa 63% 0.0mm
03/10:30pm SSW 20-30 kts 13.4°c 1028.8 hPa 60% 0.0mm
03/10:19pm SSW 19-30 kts 13.6°c 1028.8 hPa 60% 0.0mm
03/10:00pm SSW 20-28 kts 13.7°c 1028.2 hPa 50% 0.0mm
03/09:47pm SSW 20-30 kts 13.7°c 1028.2 hPa 57% 0.0mm
03/09:30pm SSW 19-27 kts 13.7°c 1028.3 hPa 55% 0.0mm
03/09:10pm SSW 18-28 kts 13.9°c 1028.6 hPa 63% 0.0mm
03/09:00pm SSW 21-29 kts 13.7°c 1028.3 hPa 59% 0.0mm
03/08:30pm SSW 20-30 kts 13.9°c 1027.9 hPa 58% 0.0mm
03/08:00pm SSW 21-33 kts 14.1°c 1027.2 hPa 56% 0.0mm
03/07:31pm S 16-28 kts 14.0°c 1026.9 hPa 60% 0.0mm
03/07:30pm S 16-24 kts 14.1°c 1026.9 hPa 61% 0.0mm
03/07:00pm SSW 19-30 kts 14.0°c 1026.5 hPa 64% 0.0mm
03/06:31pm SSW 18-28 kts 14.2°c 1026.1 hPa 64% 0.0mm
03/06:30pm SSW 19-28 kts 14.2°c 1026.2 hPa 62% 0.0mm
03/06:00pm S 16-26 kts 14.1°c 1025.8 hPa 60% 0.0mm
03/05:30pm SSW 17-29 kts 14.2°c 1025.3 hPa 66% 0.0mm
03/05:00pm S 16-29 kts 14.2°c 1024.8 hPa 67% 0.0mm
03/04:45pm S 17-28 kts 14.1°c 1024.8 hPa 66% 0.0mm
03/04:30pm S 14-24 kts 14.5°c 1024.6 hPa 66% 0.0mm
03/04:06pm SSW 17-28 kts 15.0°c 1024.5 hPa 54% 0.0mm
03/04:00pm SSW 18-26 kts 15.1°c 1024.3 hPa 56% 0.0mm
03/03:36pm SSW 15-25 kts 15.4°c 1024.0 hPa 56% 0.0mm
03/03:30pm SSW 16-22 kts 15.3°c 1024.0 hPa 59% 0.0mm
03/03:00pm SSW 16-24 kts 14.9°c 1023.5 hPa 56% 0.0mm
03/02:30pm SSW 15-22 kts 15.1°c 1023.3 hPa 56% 0.0mm
03/02:00pm SSW 15-22 kts 15.2°c 1022.9 hPa 50% 0.0mm
03/01:30pm SW 15-22 kts 15.1°c 1022.8 hPa 45% 0.0mm
03/01:00pm SSW 15-22 kts 15.3°c 1022.7 hPa 51% 0.0mm
03/12:30pm SSW 17-23 kts 15.1°c 1022.9 hPa 43% 0.0mm
03/12:00pm SW 13-22 kts 15.1°c 1022.8 hPa 46% 0.0mm
03/11:30am SW 14-21 kts 15.0°c 1022.6 hPa 46% 0.0mm
03/11:00am SW 13-21 kts 14.8°c 1022.5 hPa 46% 0.0mm
03/10:30am SW 13-20 kts 14.8°c 1022.5 hPa 49% 0.0mm
03/10:00am SW 13-22 kts 14.8°c 1022.4 hPa 52% 0.0mm
03/09:30am WSW 9-14 kts 14.7°c 1022.1 hPa 57% 0.0mm
03/09:00am WSW 7-12 kts 13.6°c 1021.4 hPa 58% 0.0mm
03/08:30am WSW 6-10 kts 13.6°c 1021.1 hPa 59% 0.0mm
03/08:00am WSW 6-10 kts 12.6°c 1020.6 hPa 64% 0.0mm
03/07:30am WSW 6-11 kts 12.7°c 1019.8 hPa 63% 0.0mm
03/07:00am W 4-10 kts 12.4°c 1018.9 hPa 63% 0.0mm
03/06:30am W 4-7 kts 12.3°c 1018.4 hPa 61% 0.0mm
03/06:00am WNW 5-9 kts 12.6°c 1017.9 hPa 62% 0.0mm
03/05:30am WNW 5-9 kts 12.4°c 1017.5 hPa 62% 0.0mm
03/05:00am WNW 6-14 kts 12.3°c 1016.8 hPa 61% 0.0mm
03/04:30am WNW 5-9 kts 12.6°c 1016.1 hPa 61% 0.0mm
03/04:00am W 4-7 kts 12.4°c 1016.8 hPa 61% 0.0mm
03/03:30am W 5-8 kts 12.4°c 1016.8 hPa 61% 0.0mm
03/03:00am WNW 5-10 kts 12.3°c 1016.6 hPa 62% 0.0mm
03/02:30am WNW 5-10 kts 12.3°c 1016.6 hPa 62% 0.0mm
03/02:00am WNW 5-9 kts 12.2°c 1016.5 hPa 61% 0.0mm
03/01:30am WNW 6-11 kts 12.2°c 1016.2 hPa 63% 0.0mm
03/01:00am WNW 5-15 kts 12.1°c 1016.4 hPa 62% 0.0mm
03/12:30am WNW 5-9 kts 12.1°c 1016.5 hPa 60% 0.0mm
03/12:00am WNW 7-11 kts 11.7°c 1016.5 hPa 63% 0.0mm